Location: Newark
(43.6583°N, 1.6617°E)
Time: 06:59:11
(UTC+00:00)

S-56A Canister/Altair - All Passes

Search period start: 24 August 2019 00:00
Search period end: 03 September 2019 00:00
Orbit: 633 x 2499 km, 38.9° (Epoch: 23 August)

Date Brightness Start Highest point End Pass type
(mag) Time Alt. Az. Time Alt. Az. Time Alt. Az.
24 Aug - 01:44:25 10° WSW 01:48:07 21° SSW 01:52:38 10° SSE night (unlit)
24 Aug - 19:02:26 10° SSW 19:06:04 17° SSE 19:09:13 10° ESE daylight
24 Aug - 21:04:41 10° WSW 21:09:13 40° S 21:13:22 10° E visible
24 Aug - 23:08:09 10° W 23:12:22 44° S 23:17:01 10° ESE night (unlit)
25 Aug - 01:11:55 10° WSW 01:15:33 22° SSW 01:19:57 10° SSE night (unlit)
25 Aug - 18:29:53 10° S 18:33:30 16° SSE 18:36:37 10° ESE daylight
25 Aug - 20:31:59 10° SW 20:36:44 38° SSE 20:40:51 10° E visible
25 Aug - 22:35:36 10° WSW 22:39:54 45° S 22:44:21 10° ESE visible
26 Aug - 00:39:23 10° WSW 00:43:02 23° SSW 00:47:17 10° SSE night (unlit)
26 Aug - 17:57:19 10° S 18:00:55 15° SSE 18:03:59 10° ESE daylight
26 Aug - 19:59:14 10° SW 20:04:14 36° SSE 20:08:23 10° E visible
26 Aug - 22:02:59 10° WSW 22:07:26 46° S 22:11:46 10° ESE visible
27 Aug - 00:06:51 10° WSW 00:10:32 25° SSW 00:14:41 10° SE night (unlit)
27 Aug - 17:24:45 10° S 17:28:17 14° SSE 17:31:18 10° ESE daylight
27 Aug - 19:26:24 10° SW 19:31:43 35° SSE 19:35:57 10° E visible
27 Aug - 21:30:18 10° WSW 21:34:58 48° S 21:39:14 10° ESE visible
27 Aug - 23:34:16 10° WSW 23:38:03 27° SSW 23:42:07 10° SE night (unlit)
28 Aug - 16:52:11 10° S 16:55:37 14° SSE 16:58:35 10° ESE daylight
28 Aug - 18:53:29 10° SW 18:59:10 33° SSE 19:03:33 10° E daylight
28 Aug - 20:57:31 10° WSW 21:02:29 49° S 21:06:46 10° ESE visible
28 Aug - 23:01:39 10° W 23:05:34 30° SSW 23:09:37 10° SE visible
29 Aug - 16:19:41 10° S 16:22:55 13° SSE 16:25:46 10° SE daylight
29 Aug - 18:20:31 10° SW 18:26:35 32° SSE 18:31:08 10° E daylight
29 Aug - 20:24:39 10° WSW 20:29:59 49° S 20:34:20 10° ESE visible
29 Aug - 22:28:58 10° W 22:33:06 33° SSW 22:37:09 10° SE visible
30 Aug - 00:35:38 10° SW 00:36:00 10° SSW 00:36:22 10° SSW night (unlit)
30 Aug - 15:47:16 10° SSE 15:50:11 12° SSE 15:52:48 10° SE daylight
30 Aug - 17:47:30 10° SW 17:53:57 31° SSE 17:58:44 10° E daylight
30 Aug - 19:51:42 10° WSW 19:57:28 50° S 20:01:56 10° ESE visible
30 Aug - 21:56:13 10° W 22:00:39 36° SSW 22:04:44 10° SE visible
31 Aug - 00:01:52 10° SW 00:03:29 12° SSW 00:05:09 10° S night (unlit)
31 Aug - 15:15:03 10° SSE 15:17:25 11° SE 15:19:35 10° SE daylight
31 Aug - 17:14:25 10° SW 17:21:18 30° SSE 17:26:19 10° E daylight
31 Aug - 19:18:40 10° WSW 19:24:55 50° S 19:29:34 10° E visible
31 Aug - 21:23:24 10° W 21:28:11 40° SSW 21:32:21 10° SE visible
31 Aug - 23:28:43 10° WSW 23:31:00 14° SSW 23:33:18 10° S night (unlit)
01 Sep - 14:43:23 10° SSE 14:44:37 10° SE 14:45:47 10° SE daylight
01 Sep - 16:41:19 10° SSW 16:48:36 29° SSE 16:53:53 10° E daylight
01 Sep - 18:45:32 10° WSW 18:52:20 50° S 18:57:13 10° E visible
01 Sep - 20:50:30 10° W 20:55:43 44° SSW 21:00:00 10° ESE visible
01 Sep - 22:55:42 10° WSW 22:58:32 16° SSW 23:01:19 10° S visible
02 Sep - 16:08:11 10° SSW 16:15:50 28° SSE 16:21:24 10° E daylight
02 Sep - 18:12:20 10° WSW 18:19:43 50° S 18:24:52 10° E daylight
02 Sep - 20:17:30 10° W 20:23:13 48° S 20:27:39 10° ESE visible
02 Sep - 22:22:42 10° WSW 22:26:05 19° SSW 22:29:15 10° SSE visible
